Weather History for KMOT - March, 2013

Change the Weather History Date:

Thursday, March 14, 2013

  Actual Average Record
Temperature  
Mean Temperature 29 °F 27 °F  
Max Temperature 38 °F 36 °F 70 °F (1914)
Min Temperature 19 °F 19 °F -30 °F (1906)
Degree Days  
Heating Degree Days 36 38  
Month to date heating degree days 658 570  
Since 1 July heating degree days 7388 7146  
Cooling Degree Days 0 0  
Month to date cooling degree days 0 0  
Year to date cooling degree days 0 0  
Moisture  
Dew Point 23 °F    
Average Humidity 88    
Maximum Humidity 100    
Minimum Humidity 76    
Precipitation  
Precipitation T in 0.03 in 0.90 in (1971)
Month to date precipitation 0.26 0.30  
Year to date precipitation 0.80 1.21  
Sea Level Pressure  
Sea Level Pressure 30.10 in    
Wind  
Wind Speed 8 mph (NW)    
Max Wind Speed 17 mph    
Max Gust Speed 21 mph    
Visibility 7 miles    
Events Snow    
T = Trace of Precipitation, MM = Missing Value Source: NWS Daily Summary

Daily Weather History Graph

Daily Weather History Graph

Search for Another Location

Airport or City:

Trip Planner

Search our weather history database for the weather conditions in past years. The results will help you decide how hot, cold, wet, or windy it might be!

Date:

Astronomy

Mar. 14, 2013 Rise Set
Actual Time 7:59 AM CDT 7:49 PM CDT
Civil Twilight 7:28 AM CDT 8:20 PM CDT
Nautical Twilight 6:52 AM CDT 8:56 PM CDT
Astronomical Twilight 6:15 AM CDT 9:34 PM CDT
Moon 8:58 AM CDT (3/14) 11:27 PM CDT (3/14)
Length of Visible Light 12h 51m
Length of Day
11h 49m
Waxing Crescent, 9% of the Moon is Illuminated
Mar 14
Waxing Crescent
Mar 19
First Quarter
Mar 27
Full
Apr 2
Last Quarter
Apr 10
New

Hourly Weather History & Observations

Time (CDT) Temp. Windchill Dew Point Humidity Pressure Visibility Wind Dir Wind Speed Gust Speed Precip Events Conditions
12:54 AM 21.0 °F 12.4 °F 19.0 °F 92% 30.02 in 8.0 mi NW 6.9 mph - N/A   Clear
1:54 AM 19.9 °F 12.1 °F 17.1 °F 89% 30.04 in 7.0 mi West 5.8 mph - N/A   Clear
2:54 AM 21.9 °F 14.5 °F 19.9 °F 92% 30.05 in 8.0 mi WNW 5.8 mph - N/A   Clear
3:54 AM 25.0 °F 17.1 °F 23.0 °F 92% 30.06 in 9.0 mi West 6.9 mph - N/A   Clear
4:54 AM 25.0 °F 15.5 °F 23.0 °F 92% 30.05 in 8.0 mi West 9.2 mph - N/A   Clear
5:54 AM 25.0 °F 16.3 °F 23.0 °F 92% 30.07 in 7.0 mi WSW 8.1 mph - N/A   Clear
6:54 AM 24.1 °F 19.7 °F 21.9 °F 91% 30.09 in 9.0 mi SSW 3.5 mph - N/A   Clear
7:34 AM 23.0 °F - 21.2 °F 93% 30.01 in 2.0 mi Calm Calm - N/A   Clear
7:45 AM 21.2 °F 13.6 °F 21.2 °F 100% 30.02 in 4.0 mi SSW 5.8 mph - N/A   Clear
7:54 AM 21.9 °F 13.4 °F 21.0 °F 96% 30.10 in 10.0 mi SW 6.9 mph - N/A   Clear
8:54 AM 26.1 °F 20.5 °F 24.1 °F 92% 30.11 in 10.0 mi WSW 4.6 mph - N/A   Clear
9:54 AM 25.0 °F - 23.0 °F 92% 30.12 in 8.0 mi Calm Calm - N/A   Clear
10:54 AM 34.0 °F 28.8 °F 28.9 °F 82% 30.10 in 10.0 mi WSW 5.8 mph - N/A   Clear
11:54 AM 37.0 °F 31.6 °F 30.0 °F 76% 30.09 in 10.0 mi WNW 6.9 mph - N/A   Clear
12:54 PM 34.0 °F 25.0 °F 28.0 °F 79% 30.13 in 10.0 mi North 12.7 mph - N/A   Clear
1:04 PM 32.0 °F 22.5 °F 26.6 °F 80% 30.05 in 9.0 mi North 12.7 mph - N/A   Clear
1:54 PM 30.0 °F 23.2 °F 25.0 °F 82% 30.13 in 7.0 mi North 6.9 mph - N/A   Clear
2:31 PM 28.4 °F 18.0 °F 24.8 °F 86% 30.05 in 6.0 mi North 12.7 mph - N/A   Scattered Clouds
2:41 PM 28.4 °F 18.5 °F 24.8 °F 86% 30.05 in 4.0 mi NNW 11.5 mph - N/A   Mostly Cloudy
2:54 PM 28.0 °F 18.1 °F 25.0 °F 88% 30.14 in 3.0 mi NNW 11.5 mph - N/A   Overcast
3:03 PM 26.6 °F 15.2 °F 24.8 °F 93% 30.05 in 1.8 mi NNW 13.8 mph - N/A   Overcast
3:36 PM 26.6 °F 15.7 °F 24.8 °F 93% 30.06 in 3.0 mi NNW 12.7 mph - N/A   Overcast
3:54 PM 28.0 °F 18.6 °F 24.1 °F 85% 30.14 in 6.0 mi NW 10.4 mph - N/A   Overcast
4:04 PM 28.4 °F 19.1 °F 24.8 °F 86% 30.06 in 5.0 mi WNW 10.4 mph - N/A   Overcast
4:33 PM 28.4 °F 17.5 °F 24.8 °F 86% 30.07 in 8.0 mi NW 13.8 mph - N/A   Scattered Clouds
4:54 PM 28.9 °F 18.2 °F 23.0 °F 78% 30.14 in 10.0 mi NNW 13.8 mph - N/A   Scattered Clouds
5:54 PM 27.0 °F 15.6 °F 21.9 °F 81% 30.17 in 10.0 mi NNW 13.8 mph - N/A   Overcast
6:54 PM 25.0 °F 14.2 °F 19.9 °F 81% 30.17 in 10.0 mi NNW 11.5 mph - N/A   Overcast
7:40 PM 24.8 °F 12.4 °F 19.4 °F 80% 30.09 in 9.0 mi NNW 15.0 mph - N/A   Overcast
7:54 PM 24.1 °F 12.0 °F 19.0 °F 81% 30.18 in 9.0 mi NNW 13.8 mph - N/A   Overcast
8:54 PM 24.1 °F 15.2 °F 21.0 °F 88% 30.19 in 7.0 mi NE 8.1 mph - N/A   Overcast
9:54 PM 25.0 °F 18.1 °F 21.9 °F 88% 30.20 in 7.0 mi NNE 5.8 mph - N/A   Overcast
10:54 PM 24.1 °F 15.2 °F 21.9 °F 91% 30.18 in 7.0 mi ENE 8.1 mph - N/A   Overcast
11:54 PM 21.9 °F 9.8 °F 17.1 °F 82% 30.19 in 3.0 mi ENE 12.7 mph - 0.00 in Snow Light Snow